| time (UTC) | temp F | wind direction | speed knots | gust knots | rain 1hr in | rain 24hr in | rain mn in | humidity % | barometer mb |
| 20260504174516 | 64 | 171 | 4.3 | 10.4 | 0.00 | 0.00 | 0.00 | 44 | 1009.6 |
| 20260504173516 | 63 | 193 | 7.0 | 18.2 | 0.00 | 0.00 | 0.00 | 45 | 1009.7 |
| 20260504172516 | 61 | 221 | 6.1 | 11.3 | 0.00 | 0.00 | 0.00 | 47 | 1009.9 |
| 20260504171516 | 60 | 197 | 6.1 | 13.0 | 0.00 | 0.00 | 0.00 | 46 | 1010.0 |
| 20260504170516 | 61 | 225 | 5.2 | 11.3 | 0.00 | 0.00 | 0.00 | 48 | 1010.1 |
| 20260504150516 | 55 | 244 | 6.1 | 12.2 | 0.00 | 0.00 | 0.00 | 50 | 1011.2 |
| 20260504140516 | 52 | 210 | 5.2 | 10.4 | 0.00 | 0.00 | 0.00 | 54 | 1011.6 |
| 20260504130516 | 49 | 208 | 5.2 | 13.0 | 0.00 | 0.00 | 0.00 | 57 | 1012.1 |
| 20260504110517 | 40 | 292 | 0.0 | 2.6 | 0.00 | 0.00 | 0.00 | 74 | 1012.1 |
| 20260504100517 | 38 | 346 | 1.7 | 2.6 | 0.00 | 0.00 | 0.00 | 76 | 1012.1 |
| 20260504081557 | 39 | 344 | 0.9 | 1.7 | 0.00 | 0.00 | 0.00 | 72 | 1012.1 |
| 20260504080517 | 39 | 344 | 0.9 | 1.7 | 0.00 | 0.00 | 0.00 | 72 | 1012.1 |
| 20260504050516 | 38 | 0.0 | 0.0 | 0.00 | 0.00 | 0.00 | 78 | 1011.6 | |
| 20260504045516 | 38 | 0.0 | 0.0 | 0.00 | 0.00 | 0.00 | 77 | 1011.7 | |
| 20260504044516 | 39 | 277 | 0.9 | 1.7 | 0.00 | 0.00 | 0.00 | 77 | 1011.7 |
| 20260504043516 | 38 | 0.0 | 0.0 | 0.00 | 0.00 | 0.00 | 77 | 1011.7 | |
| 20260504042516 | 39 | 277 | 0.0 | 0.9 | 0.00 | 0.00 | 0.00 | 76 | 1011.7 |
| 20260504041516 | 39 | 277 | 0.0 | 0.9 | 0.00 | 0.00 | 0.00 | 73 | 1011.7 |
| 20260504040516 | 39 | 0.0 | 0.0 | 0.00 | 0.00 | 0.00 | 73 | 1011.7 | |
| 20260504035516 | 39 | 0.0 | 0.0 | 0.00 | 0.00 | 0.00 | 75 | 1011.7 | |
| 20260504034516 | 39 | 0.0 | 0.0 | 0.00 | 0.00 | 0.00 | 77 | 1011.7 | |
| 20260504033516 | 38 | 0.0 | 0.0 | 0.00 | 0.00 | 0.00 | 76 | 1011.7 | |
| 20260504032516 | 38 | 0.0 | 0.9 | 0.00 | 0.00 | 0.00 | 76 | 1011.7 | |
| 20260504031536 | 38 | 0.0 | 0.0 | 0.00 | 0.00 | 0.00 | 75 | 1011.7 | |
| 20260504030516 | 38 | 0.0 | 0.0 | 0.00 | 0.00 | 0.00 | 74 | 1011.8 | |
| 20260504025516 | 38 | 0.0 | 0.0 | 0.00 | 0.00 | 0.00 | 74 | 1011.7 | |
| 20260504024516 | 39 | 277 | 0.0 | 1.7 | 0.00 | 0.00 | 0.00 | 75 | 1011.8 |
| 20260504023516 | 39 | 0.0 | 0.0 | 0.00 | 0.00 | 0.00 | 72 | 1011.8 | |
| 20260504022516 | 39 | 277 | 0.0 | 1.7 | 0.00 | 0.00 | 0.00 | 73 | 1011.7 |
| 20260504021516 | 40 | 0.0 | 0.0 | 0.00 | 0.00 | 0.00 | 71 | 1011.6 | |
| 20260504020516 | 40 | 0.0 | 0.0 | 0.00 | 0.00 | 0.00 | 71 | 1011.6 | |
| 20260504015516 | 41 | 277 | 0.9 | 1.7 | 0.00 | 0.00 | 0.00 | 71 | 1011.5 |
| 20260504014516 | 41 | 0.0 | 0.0 | 0.00 | 0.00 | 0.00 | 69 | 1011.5 | |
| 20260504013516 | 41 | 277 | 0.0 | 1.7 | 0.00 | 0.00 | 0.00 | 70 | 1011.5 |
| 20260504012516 | 42 | 0.0 | 0.9 | 0.00 | 0.00 | 0.00 | 66 | 1011.5 | |
| 20260504011516 | 42 | 277 | 0.9 | 1.7 | 0.00 | 0.00 | 0.00 | 65 | 1011.4 |
| 20260504010536 | 42 | 277 | 1.7 | 2.6 | 0.00 | 0.00 | 0.00 | 65 | 1011.2 |
| 20260504005516 | 42 | 277 | 0.9 | 1.7 | 0.00 | 0.00 | 0.00 | 63 | 1011.2 |
| 20260504004516 | 43 | 277 | 1.7 | 2.6 | 0.00 | 0.00 | 0.00 | 63 | 1011.1 |
| 20260504003536 | 43 | 277 | 0.9 | 2.6 | 0.00 | 0.00 | 0.00 | 63 | 1011.1 |
| 20260504002516 | 44 | 277 | 0.9 | 2.6 | 0.00 | 0.00 | 0.00 | 61 | 1011.0 |
| 20260504001516 | 44 | 277 | 0.9 | 2.6 | 0.00 | 0.00 | 0.00 | 61 | 1010.9 |
| 20260504000516 | 45 | 227 | 0.9 | 2.6 | 0.00 | 0.00 | 0.00 | 59 | 1010.9 |
| 20260503235516 | 45 | 262 | 0.0 | 2.6 | 0.00 | 0.00 | 0.00 | 57 | 1010.8 |
| 20260503234516 | 45 | 249 | 0.9 | 3.5 | 0.00 | 0.00 | 0.00 | 57 | 1010.7 |
| 20260503233516 | 46 | 269 | 0.9 | 3.5 | 0.00 | 0.00 | 0.00 | 56 | 1010.6 |
| 20260503232556 | 46 | 241 | 1.7 | 4.3 | 0.00 | 0.00 | 0.00 | 55 | 1010.7 |
| 20260503231537 | 46 | 224 | 2.6 | 8.7 | 0.00 | 0.00 | 0.00 | 55 | 1010.6 |
| 20260503230516 | 47 | 215 | 2.6 | 7.0 | 0.00 | 0.00 | 0.00 | 54 | 1010.5 |
| 20260503225516 | 47 | 248 | 2.6 | 9.6 | 0.00 | 0.11 | 0.11 | 53 | 1010.5 |
| 20260503224516 | 47 | 223 | 2.6 | 8.7 | 0.00 | 0.11 | 0.11 | 51 | 1010.4 |
| 20260503223516 | 47 | 220 | 2.6 | 8.7 | 0.00 | 0.11 | 0.11 | 51 | 1010.3 |
| 20260503222516 | 47 | 226 | 2.6 | 6.1 | 0.00 | 0.11 | 0.11 | 50 | 1010.2 |
| 20260503221516 | 48 | 244 | 2.6 | 9.6 | 0.00 | 0.11 | 0.11 | 49 | 1010.2 |
| 20260503220536 | 48 | 222 | 4.3 | 9.6 | 0.00 | 0.11 | 0.11 | 49 | 1010.1 |
| 20260503215536 | 48 | 242 | 2.6 | 8.7 | 0.00 | 0.11 | 0.11 | 48 | 1010.0 |
| 20260503214516 | 48 | 253 | 3.5 | 12.2 | 0.00 | 0.11 | 0.11 | 47 | 1009.9 |
| 20260503213516 | 48 | 298 | 2.6 | 18.2 | 0.00 | 0.11 | 0.11 | 45 | 1009.7 |
| 20260503212516 | 49 | 198 | 4.3 | 12.2 | 0.00 | 0.11 | 0.11 | 45 | 1009.6 |
| 20260503211536 | 50 | 238 | 4.3 | 10.4 | 0.00 | 0.11 | 0.11 | 43 | 1009.5 |
| 20260503210516 | 50 | 230 | 5.2 | 10.4 | 0.00 | 0.11 | 0.11 | 43 | 1009.5 |
| 20260503205516 | 50 | 225 | 6.1 | 17.4 | 0.00 | 0.11 | 0.11 | 40 | 1009.5 |
| 20260503204536 | 51 | 227 | 3.5 | 14.8 | 0.00 | 0.11 | 0.11 | 41 | 1009.5 |
| 20260503203516 | 51 | 217 | 4.3 | 12.2 | 0.00 | 0.11 | 0.11 | 39 | 1009.5 |
| 20260503202516 | 50 | 224 | 4.3 | 12.2 | 0.00 | 0.11 | 0.11 | 39 | 1009.5 |
| 20260503201516 | 50 | 61 | 3.5 | 10.4 | 0.00 | 0.11 | 0.11 | 39 | 1009.6 |
| 20260503200516 | 50 | 247 | 5.2 | 16.5 | 0.00 | 0.11 | 0.11 | 39 | 1009.7 |
| 20260503195517 | 49 | 234 | 7.0 | 17.4 | 0.00 | 0.11 | 0.11 | 38 | 1009.9 |
| 20260503194517 | 50 | 217 | 4.3 | 11.3 | 0.00 | 0.11 | 0.11 | 40 | 1010.1 |
| 20260503193517 | 48 | 209 | 3.5 | 10.4 | 0.00 | 0.11 | 0.11 | 41 | 1010.1 |
| 20260503192517 | 48 | 209 | 3.5 | 13.0 | 0.00 | 0.11 | 0.11 | 41 | 1010.2 |
| 20260503191517 | 49 | 233 | 7.0 | 16.5 | 0.00 | 0.11 | 0.11 | 41 | 1010.3 |
| 20260503190517 | 48 | 228 | 6.1 | 13.0 | 0.00 | 0.11 | 0.11 | 45 | 1010.3 |
| 20260503185517 | 46 | 231 | 4.3 | 10.4 | 0.00 | 0.11 | 0.11 | 44 | 1010.5 |
| 20260503184517 | 47 | 265 | 4.3 | 18.2 | 0.00 | 0.11 | 0.11 | 44 | 1010.6 |
| 20260503183537 | 47 | 232 | 3.5 | 10.4 | 0.00 | 0.11 | 0.11 | 45 | 1010.7 |
| 20260503182517 | 48 | 218 | 3.5 | 10.4 | 0.00 | 0.11 | 0.11 | 44 | 1010.7 |
| 20260503181517 | 47 | 282 | 5.2 | 12.2 | 0.00 | 0.11 | 0.11 | 46 | 1010.7 |
| 20260503180518 | 45 | 250 | 6.1 | 13.9 | 0.00 | 0.11 | 0.11 | 48 | 1010.7 |
| 20260503175517 | 45 | 255 | 2.6 | 13.9 | 0.00 | 0.11 | 0.11 | 48 | 1010.9 |